AOBA-VELOX 3

Last updated on Fri Nov 02 2018 00:02:07 GMT+0000 (Coordinated Universal Time)

1 41935U 98067KX 18305.47522705 .06673673 12387-4 58971-3 0 9997 2 41935 51.6243 332.8723 0002264 27.6675 118.1989 16.38373561102788

Satellite not in orbit